x

West Santa Barbara 38 Nm West Of Santa Barbara, Ca (46054) Wave Buoy

7:50am - Thu 23rd Nov 2017 All times are PST. -8 hours from GMT.

  • Sig Wave height 5.9ft
  • Swell Direction
  • Peak Period 14s
  • Average Period 8s
  • Wind
    7mph, 9mph gusts
  • Sea Temp 60°f
  • Air Temp 61°f
  • Sea Pressure 1016.5mb
  • West Santa Barbara  38 Nm West Of Santa Barbara, Ca
  • West Santa Barbara  38 Nm West Of Santa Barbara, Ca

More Historic Weather Station data

Upgrade to MSW Pro to gain access to the past 30 days of data for over 8000 Wavebouys and Weather Stations around the globe.

Join

Comparision Forecast

View Surf forecast
   
Thu 11/23 7:50am 6ft 14s 8s 7 9 mph 1016.5mb 60f 61f
7:40am 6ft  -  8s 7 11 mph 1016.3mb 60f 61f
7:30am  -   -   -  7 9 mph 1016.3mb 60f 61f
7:20am  -   -   -  7 11 mph 1016.2mb 60f 61f
7:10am  -   -   -  9 11 mph 1016.1mb 60f 61f
7:00am  -   -   -  11 11 mph 1015.9mb 60f 61f
6:50am 5ft 15s 8s 9 13 mph 1015.9mb 60f 61f
6:40am  -   -   -  11 13 mph 1016mb 60f 61f
6:30am  -   -   -  11 13 mph 1016mb 60f 61f
6:20am  -   -   -  11 13 mph 1015.9mb 60f 61f
6:10am  -   -   -  11 13 mph 1015.9mb 60f 61f
6:00am  -   -   -  11 16 mph 1015.9mb 60f 61f
5:50am 5ft 15s 7s 11 16 mph 1015.8mb 60f 61f
5:40am 5ft  -  7s 13 16 mph 1015.8mb 60f 60f
5:30am  -   -   -  13 16 mph 1015.7mb 60f 60f
5:20am  -   -   -  16 18 mph 1015.7mb 60f 60f
5:10am  -   -   -  13 18 mph 1015.7mb 60f 60f
5:00am  -   -   -  16 18 mph 1015.7mb 60f 60f
4:50am 5ft 15s 7s 18 20 mph 1015.7mb 60f 60f
4:40am  -   -   -  16 20 mph 1015.8mb 60f 60f
4:30am  -   -   -  18 20 mph 1015.7mb 60f 60f
4:20am  -   -   -  18 22 mph 1015.7mb 60f 60f
4:10am  -   -   -  18 22 mph 1015.7mb 60f 60f
4:00am  -   -   -  18 22 mph 1015.8mb 60f 60f
3:50am 5ft 9s 6s 18 22 mph 1015.9mb 60f 60f
3:40am 5ft  -  6s 20 25 mph 1016mb - 60f
3:30am  -   -   -  20 25 mph 1016mb 60f 60f
3:20am  -   -   -  20 25 mph 1015.9mb 60f 60f
3:10am  -   -   -  22 27 mph 1016.1mb 60f 60f
3:00am  -   -   -  20 25 mph 1016.1mb 60f 61f
2:50am 5ft 15s 6s 20 25 mph 1016.2mb 60f 61f
2:40am 5ft  -  6s 20 25 mph 1016.3mb 60f 61f
2:30am  -   -   -  18 22 mph 1016.4mb 60f 61f
2:20am  -   -   -  18 22 mph 1016.5mb 60f 61f
2:10am  -   -   -  20 22 mph 1016.4mb 60f 61f
2:00am  -   -   -  18 22 mph 1016.4mb 60f 62f
1:50am 5ft 10s 6s 20 25 mph 1016.3mb 60f 62f
1:40am  -   -   -  18 25 mph 1016.3mb 60f 62f
1:30am  -   -   -  18 22 mph 1016.3mb 60f 62f
1:20am  -   -   -  18 22 mph 1016.2mb 60f 63f
1:10am  -   -   -  18 22 mph 1016.2mb 60f 63f
1:00am  -   -   -  18 22 mph 1016.2mb 60f 63f
12:50am 5ft 10s 6s 18 20 mph 1016.3mb 60f 63f
12:40am 5ft  -  6s 18 22 mph 1016.4mb 60f 63f
12:30am  -   -   -  18 22 mph 1016.4mb 60f 63f
12:20am  -   -   -  18 20 mph 1016.5mb 60f 63f
12:10am  -   -   -  16 20 mph 1016.5mb 60f 63f
12:00am  -   -   -  16 20 mph 1016.5mb 60f 63f
Wed 11/22 11:50pm 5ft 10s 6s 16 20 mph 1016.6mb - 63f
11:40pm  -   -   -  16 20 mph 1016.7mb 60f 63f
11:30pm  -   -   -  16 20 mph 1016.9mb 60f 63f
11:20pm  -   -   -  18 22 mph 1016.9mb 60f 63f
11:10pm  -   -   -  18 22 mph 1016.9mb 60f 63f
11:00pm  -   -   -  20 22 mph 1017mb 60f 63f
10:50pm 5ft 10s 6s 20 25 mph 1017mb 60f 63f
10:40pm 5ft  -  6s 18 22 mph 1016.8mb 60f 63f
10:30pm  -   -   -  20 25 mph 1016.8mb 60f 63f
10:20pm  -   -   -  18 22 mph 1016.8mb 60f 62f
10:10pm  -   -   -  18 22 mph 1016.9mb 60f 62f
10:00pm  -   -   -  20 25 mph 1016.9mb 60f 62f
9:50pm 4.5ft 10s 5s 20 27 mph 1016.9mb 60f 62f
9:40pm 4.5ft  -  5s 22 27 mph 1016.9mb 60f 61f
9:30pm  -   -   -  20 25 mph 1016.9mb 60f 61f
9:20pm  -   -   -  20 25 mph 1017mb 60f 61f
9:10pm  -   -   -  20 25 mph 1016.9mb 60f 61f
9:00pm  -   -   -  20 25 mph 1017mb 60f 61f
8:50pm 5ft 9s 6s 20 25 mph 1016.8mb 60f 61f
8:40pm 5ft  -  6s 20 25 mph 1016.7mb 60f 61f
8:30pm  -   -   -  20 22 mph 1016.7mb 60f 61f
8:20pm  -   -   -  20 22 mph 1016.8mb 60f 61f
8:10pm  -   -   -  20 25 mph 1016.7mb 60f 61f
8:00pm  -   -   -  20 27 mph 1016.7mb 60f 62f
7:50pm 5ft 10s 6s 20 25 mph 1016.7mb 60f 62f
7:40pm 5ft  -  6s 20 22 mph 1016.6mb 60f 62f
7:30pm  -   -   -  18 20 mph 1016.5mb 60f 62f
7:20pm  -   -   -  18 20 mph 1016.5mb 60f 62f
7:10pm  -   -   -  18 20 mph 1016.5mb 60f 62f
7:00pm  -   -   -  18 20 mph 1016.6mb - 62f
6:50pm 4.5ft  -  6s 16 20 mph 1016.5mb 60f 62f
6:40pm 4.5ft  -  6s 18 22 mph 1016.5mb 60f 62f
6:30pm  -   -   -  20 22 mph 1016.4mb 60f 62f
6:20pm  -   -   -  18 22 mph 1016.3mb 60f 62f
6:10pm  -   -   -  18 22 mph 1016.3mb 60f 62f
6:00pm  -   -   -  18 22 mph 1016.3mb 60f 62f
5:50pm 4ft  -  6s 18 22 mph 1016.3mb 60f -
5:40pm 4ft  -  6s 18 22 mph 1016.3mb 60f 62f
5:30pm  -   -   -  18 20 mph 1016.3mb 60f 62f
5:20pm  -   -   -  18 22 mph 1016.2mb 60f 62f
5:10pm  -   -   -  18 22 mph 1016.3mb 60f 62f
5:00pm  -   -   -  18 22 mph 1016.2mb 60f -
4:50pm 4ft 9s 6s 16 20 mph 1016.2mb 60f 63f
4:40pm 4ft  -  6s 13 18 mph 1016.1mb 60f 63f
4:30pm  -   -   -  13 16 mph 1015.9mb 60f 63f
4:20pm  -   -   -  11 13 mph 1015.9mb 60f 63f
4:10pm  -   -   -  13 16 mph 1015.8mb 61f 63f
4:00pm  -   -   -  13 16 mph 1015.8mb 61f 63f
3:50pm 4ft 11s 6s 13 16 mph 1015.8mb 61f 64f
3:40pm 4ft  -  6s 13 18 mph 1015.8mb 61f 63f
3:30pm  -   -   -  16 18 mph 1015.8mb 61f 63f
3:20pm  -   -   -  16 20 mph 1015.8mb 61f 63f
3:10pm  -   -   -  16 20 mph 1015.9mb 61f 63f
3:00pm  -   -   -  13 18 mph 1015.8mb 61f 63f
2:50pm 4ft 9s 6s 13 16 mph 1015.9mb 61f 62f
2:40pm 4ft  -  6s 16 20 mph 1016mb 61f 62f
2:30pm  -   -   -  16 20 mph 1016mb 61f 62f
2:20pm  -   -   -  16 20 mph 1016.1mb 61f 62f
2:10pm  -   -   -  16 20 mph 1016.1mb 61f 62f
2:00pm  -   -   -  16 20 mph 1016.3mb 61f 62f
1:50pm 3.5ft 10s 7s 11 16 mph 1016.3mb 61f 62f
1:40pm 3.5ft  -  7s 11 16 mph 1016.2mb 61f 62f
1:30pm  -   -   -  11 13 mph 1016.5mb 61f 62f
1:20pm  -   -   -  11 13 mph 1016.4mb 61f 62f
1:10pm  -   -   -  11 13 mph 1016.5mb 61f 62f
1:00pm  -   -   -  11 13 mph 1016.6mb 61f 62f
12:50pm 3.5ft 11s 7s 11 13 mph 1016.7mb 61f 62f
12:40pm 3.5ft  -  7s 9 13 mph 1016.8mb 61f 62f
12:30pm  -   -   -  7 9 mph 1016.8mb 61f 62f
12:20pm  -   -   -  7 9 mph 1016.9mb 61f 62f
12:10pm  -   -   -  4 7 mph 1017mb 61f 62f
12:00pm  -   -   -  4 4 mph 1017mb 61f 62f
11:50am 3.5ft 11s 7s 4 4 mph 1017.1mb 61f 62f
11:40am  -   -   -  7 7 mph 1017.4mb 61f 62f
11:30am  -   -   -  4 7 mph 1017.6mb 61f 62f
11:20am  -   -   -  4 7 mph 1017.7mb 61f 62f
11:10am  -   -   -  4 7 mph 1017.9mb 61f 62f
11:00am  -   -   -  7 7 mph 1017.9mb 61f 62f
10:50am 3.5ft 11s 7s 7 7 mph 1018.1mb 61f 62f
10:40am  -   -   -  4 7 mph 1018.2mb 61f 62f
10:30am  -   -   -  4 7 mph 1018.2mb 61f 62f
10:20am  -   -   -  7 11 mph 1018.3mb 61f 62f
10:10am  -   -   -  2 11 mph 1018.3mb 61f 64f
10:00am  -   -   -  2 4 mph 1018.1mb 61f 63f
9:50am 3.5ft 11s 7s 2 2 mph 1018mb 61f 63f
9:40am  -   -   -  2 4 mph 1018mb 61f 62f
9:30am  -   -   -  2 4 mph 1017.9mb 61f 62f
9:20am  -   -   -  2 4 mph 1017.9mb 61f 62f
9:10am  -   -   -  2 4 mph 1017.9mb 61f 62f
9:00am  -   -   -  4 4 mph 1017.9mb 60f 62f
8:50am 3.5ft 11s 6s 4 7 mph 1017.9mb 60f 62f
8:40am  -   -   -  4 7 mph 1018mb 60f 62f
8:30am  -   -   -  4 7 mph 1017.9mb 60f 62f
8:20am  -   -   -  4 7 mph 1017.9mb 60f 62f
8:10am  -   -   -  4 7 mph 1017.7mb 60f 62f
8:00am  -   -   -  4 7 mph 1017.7mb 60f 62f
7:50am 3.5ft 11s 6s 4 7 mph 1017.5mb 60f 61f
7:40am  -   -   -  4 4 mph 1017.6mb 60f 61f
7:30am  -   -   -  4 7 mph 1017.5mb 60f 61f
7:20am  -   -   -  4 7 mph 1017.3mb 60f 61f
7:10am  -   -   -  7 7 mph 1017.3mb 60f 61f
7:00am  -   -   -  7 7 mph 1017.1mb 60f 61f
6:50am 3.5ft 11s 6s 7 9 mph 1017mb 60f 61f
6:40am 3.5ft  -  6s 7 9 mph 1016.9mb 60f 61f
6:30am  -   -   -  7 9 mph 1016.8mb 60f 61f
6:20am  -   -   -  9 13 mph 1016.8mb 60f 61f
6:10am  -   -   -  13 16 mph 1016.8mb 60f 61f
6:00am  -   -   -  13 16 mph 1016.7mb 60f 61f
5:50am 3ft 11s 6s 11 13 mph 1016.5mb 61f 61f
5:40am 3ft  -  6s 13 16 mph 1016.5mb 61f 61f
5:30am  -   -   -  13 16 mph 1016.5mb 61f 61f
5:20am  -   -   -  13 16 mph 1016.5mb 61f 61f
5:10am  -   -   -  13 16 mph 1016.4mb 61f 61f
5:00am  -   -   -  11 16 mph 1016.4mb - 61f
4:50am 3ft 11s 6s 13 20 mph 1016.4mb 61f 61f
4:40am  -   -   -  13 16 mph 1016.4mb - 61f
4:30am  -   -   -  11 16 mph 1016.2mb 61f 61f
4:20am  -   -   -  11 13 mph 1016.2mb - 61f
4:10am  -   -   -  9 9 mph 1016mb 61f 61f
4:00am  -   -   -  11 13 mph 1016mb 61f 61f
3:50am 3.5ft 11s 6s 11 16 mph 1016.1mb 61f 61f
3:40am  -   -   -  13 16 mph 1016.2mb 61f 61f
3:30am  -   -   -  13 16 mph 1016.2mb 61f 61f
3:20am  -   -   -  13 18 mph 1016.3mb 61f 61f
3:10am  -   -   -  13 18 mph 1016.4mb 61f 61f
3:00am  -   -   -  13 18 mph 1016.4mb 61f 62f
2:50am 3.5ft 11s 6s 13 16 mph 1016.3mb 61f 62f
2:40am  -   -   -  16 18 mph 1016.3mb 61f 62f
2:30am  -   -   -  16 18 mph 1016.4mb 61f 62f
2:20am  -   -   -  16 18 mph 1016.5mb 61f 62f
2:10am  -   -   -  16 18 mph 1016.3mb 61f 62f
2:00am  -   -   -  16 18 mph 1016.3mb 61f 62f
1:50am 3.5ft 11s 6s 13 18 mph 1016.3mb 61f 62f
1:40am  -   -   -  16 18 mph 1016.4mb 61f 62f
1:30am  -   -   -  16 18 mph 1016.5mb 61f 62f
1:20am  -   -   -  13 18 mph 1016.5mb 61f 62f
1:10am  -   -   -  16 18 mph 1016.7mb 61f 63f
1:00am  -   -   -  16 20 mph 1016.8mb 61f 63f
12:50am 3.5ft 11s 6s 16 20 mph 1016.8mb 61f 63f
12:40am 3.5ft  -  6s 18 20 mph 1017mb 61f 63f
12:30am  -   -   -  16 20 mph 1017.2mb 61f 62f
12:20am  -   -   -  16 20 mph 1017.1mb 61f 62f
12:10am  -   -   -  16 18 mph 1017.3mb 61f 62f
12:00am  -   -   -  13 16 mph 1017.3mb 61f 63f
Tue 11/21 11:50pm 3.5ft 12s 6s 13 18 mph 1017.3mb 61f 63f
10:50pm 3.5ft 11s 6s 18 20 mph 1017.7mb 61f 62f
9:50pm 3.5ft 12s 6s 13 20 mph 1017.6mb 60f 63f
9:10pm  -   -   -  13 16 mph 1017.4mb 60f 64f
9:00pm  -   -   -  11 13 mph 1017.4mb 60f 64f
8:50pm 3.5ft 12s 7s 13 16 mph 1017.3mb 60f 64f
8:30pm  -   -   -  13 16 mph 1017.2mb 60f 63f
8:20pm  -   -   -  11 16 mph 1017.2mb 60f 64f
8:10pm  -   -   -  11 13 mph 1017.1mb 61f 63f
8:00pm  -   -   -  11 13 mph 1017mb 61f 63f
7:50pm 4ft 12s 8s 11 16 mph 1017mb - 63f
7:40pm 4ft  -  8s 11 13 mph 1016.9mb 61f 62f
7:30pm  -   -   -  11 13 mph 1017mb 61f 62f
7:20pm  -   -   -  9 11 mph 1017mb 61f 62f
7:10pm  -   -   -  11 13 mph 1017mb 61f 62f
7:00pm  -   -   -  11 13 mph 1017mb 61f 62f
6:50pm 3.5ft 11s 8s 9 11 mph 1016.9mb 61f 62f
6:40pm 3.5ft  -  8s 7 9 mph 1016.7mb 61f 62f
6:30pm  -   -   -  7 9 mph 1016.6mb 61f 62f
6:20pm  -   -   -  9 11 mph 1016.6mb 61f 62f
6:10pm  -   -   -  9 13 mph 1016.5mb 61f 62f
6:00pm  -   -   -  9 11 mph 1016.4mb 61f 62f
5:50pm 3.5ft 11s 8s 9 11 mph 1016.4mb 61f 62f
5:40pm 3.5ft  -  8s 7 9 mph 1016.3mb 61f 62f
5:30pm  -   -   -  4 7 mph 1016.2mb 61f 62f
5:20pm  -   -   -  4 7 mph 1016.1mb 62f 62f
5:10pm  -   -   -  7 7 mph 1016.1mb - 62f
5:00pm  -   -   -  7 7 mph 1016.1mb 62f -
4:50pm 4ft 12s 8s 7 9 mph 1016.2mb 62f 62f
4:40pm 4ft  -  8s 7 9 mph 1016.3mb - 62f
4:30pm  -   -   -  7 9 mph 1016.2mb 62f 62f
4:20pm  -   -   -  9 11 mph 1016.2mb 62f 62f
4:10pm  -   -   -  9 11 mph 1016.2mb 62f 62f
4:00pm  -   -   -  9 11 mph 1016.2mb 62f 62f
3:50pm 3ft  -  7s 9 11 mph - 62f 62f
3:40pm  -   -   -  7 9 mph 1016.1mb 62f 62f
3:30pm  -   -   -  7 9 mph 1016mb 62f 62f
3:20pm  -   -   -  7 9 mph 1016.2mb 62f 62f
3:10pm  -   -   -  7 9 mph 1016mb 62f 62f
3:00pm  -   -   -  9 11 mph 1016.2mb 62f 62f
2:50pm 3.5ft 12s 8s 9 11 mph 1016.2mb 62f 62f
2:40pm  -   -   -  7 9 mph 1016.1mb 62f 63f
2:30pm  -   -   -  4 7 mph 1016.2mb 62f 63f
2:20pm  -   -   -  2 4 mph 1016.1mb 62f 64f
2:10pm  -   -   -   -  2 mph 1015.9mb 62f 65f
2:00pm  -   -   -   -  0 mph 1016mb 62f 64f
1:50pm 3.5ft 11s 8s  -  2 mph 1016.1mb 62f 64f
1:40pm 3.5ft  -  8s  -  4 mph 1016.2mb 62f 63f
1:30pm  -   -   -   -  4 mph 1016.3mb 62f 63f
1:20pm  -   -   -  2 4 mph 1016.4mb 62f 62f
1:10pm  -   -   -  2 4 mph 1016.5mb 60f 62f
1:00pm  -   -   -  2 4 mph 1016.8mb 60f 62f
12:50pm 4ft 12s 9s 4 4 mph 1016.9mb 60f 62f
12:40pm 4ft  -  9s 4 4 mph 1017.2mb 60f 62f
12:30pm  -   -   -  4 4 mph 1017.3mb 60f 62f
12:20pm  -   -   -  4 7 mph 1017.3mb 60f 62f
12:10pm  -   -   -  4 4 mph 1017.6mb 60f 62f
12:00pm  -   -   -  2 4 mph 1017.7mb 59f 62f
11:50am 4ft 11s 9s 2 4 mph 1017.9mb 60f 61f
11:40am 4ft  -  9s 4 7 mph 1017.9mb 60f 61f
11:30am  -   -   -  7 9 mph 1018mb 61f 61f
11:20am  -   -   -  7 9 mph 1018.2mb 60f 62f
11:10am  -   -   -  7 9 mph 1018.3mb 61f 62f
11:00am  -   -   -  7 9 mph 1018.5mb 60f 62f
10:50am 4ft 12s 10s 7 9 mph 1018.7mb 61f 62f
10:40am  -   -   -  9 11 mph 1018.9mb 61f 62f
10:30am  -   -   -  9 9 mph 1019mb - 62f
10:20am  -   -   -  9 11 mph 1019.1mb 61f 61f
10:10am  -   -   -  7 9 mph 1019.2mb 61f 61f
10:00am  -   -   -  7 9 mph 1019.3mb 61f 61f
9:50am 3.5ft 13s 10s 4 7 mph 1019.2mb 60f 61f
9:40am 3.5ft  -  10s 4 7 mph 1019.1mb 60f 61f
9:30am  -   -   -  4 7 mph 1019.1mb 60f 61f
9:20am  -   -   -  4 7 mph 1019mb 60f 61f
9:10am  -   -   -  7 7 mph 1018.9mb 60f 61f
9:00am  -   -   -  4 7 mph 1018.9mb 60f 61f
8:50am 3.5ft 13s 10s 4 7 mph 1018.7mb 60f 61f
8:40am  -   -   -  4 7 mph 1018.7mb 60f 61f
8:30am  -   -   -  4 7 mph 1018.6mb 60f 62f
8:20am  -   -   -  4 4 mph 1018.4mb - 63f
8:10am  -   -   -  2 2 mph 1018.2mb 60f 62f
8:00am  -   -   -  2 4 mph 1018.3mb 60f 62f
7:50am 3.5ft 12s 8s 4 4 mph 1018.2mb 60f 62f
7:40am 3.5ft  -  8s 4 4 mph 1018.1mb 60f 61f
7:30am  -   -   -  4 4 mph 1017.9mb 60f 61f
7:20am  -   -   -  4 4 mph 1017.8mb 60f 61f
7:10am  -   -   -  4 7 mph 1017.7mb 60f 61f
7:00am  -   -   -  4 7 mph 1017.5mb 60f 61f
6:50am 3.5ft 13s 8s 2 4 mph 1017.3mb 60f 61f
6:40am  -   -   -  2 4 mph 1017mb - 62f
6:30am  -   -   -   -  2 mph 1016.8mb 60f 61f
6:20am  -   -   -   -  2 mph 1016.7mb 60f 61f
6:10am  -   -   -   -  2 mph 1016.5mb 60f 61f
6:00am  -   -   -  2 2 mph 1016.4mb 60f 61f
5:50am 3.5ft 13s 8s 2 4 mph 1016.4mb 60f 62f
5:40am  -   -   -  4 4 mph 1016.3mb 60f 61f
5:30am  -   -   -  2 4 mph 1016.2mb 60f 62f
5:20am  -   -   -   -  2 mph 1016.2mb 60f 62f
5:10am  -   -   -  2 4 mph 1016.1mb 60f 62f
5:00am  -   -   -  4 7 mph 1016.1mb - 62f
4:50am 3ft 14s 7s 4 7 mph 1015.9mb 60f 62f
4:40am  -   -   -  4 7 mph 1015.9mb 60f 62f
4:30am  -   -   -  4 7 mph 1015.8mb 60f 62f
4:20am  -   -   -  4 7 mph 1015.7mb 60f 63f
4:10am  -   -   -  4 7 mph 1015.7mb 60f 63f
4:00am  -   -   -  4 7 mph 1015.8mb 60f 63f
3:50am 3ft 11s 6s 7 7 mph 1015.8mb 60f 63f
3:40am 3ft  -  6s 7 9 mph 1015.8mb 60f 64f
3:30am  -   -   -  7 9 mph 1015.8mb 60f 64f
3:20am  -   -   -  7 9 mph 1015.8mb 60f 63f
3:10am  -   -   -  7 7 mph 1015.8mb 60f 63f
3:00am  -   -   -  4 7 mph 1015.8mb 60f 62f
2:50am 3.5ft 13s 6s 4 7 mph 1015.7mb 59f 62f
2:40am 3.5ft  -  6s 7 7 mph 1015.7mb 59f 61f
2:30am  -   -   -  4 7 mph 1015.8mb 59f 61f
2:20am  -   -   -  4 7 mph 1015.9mb 59f 61f
2:10am  -   -   -  4 7 mph 1016mb 59f 61f
2:00am  -   -   -  4 7 mph 1015.9mb 59f 61f
1:50am 3.5ft 13s 6s 4 7 mph 1016mb 59f 61f
1:40am 3.5ft  -  6s 4 7 mph 1016mb 59f 61f
1:30am  -   -   -  7 9 mph 1016.1mb - 61f
1:20am  -   -   -  7 9 mph 1016.1mb 59f 60f
1:10am  -   -   -  9 11 mph 1016mb 59f 61f
1:00am  -   -   -  9 11 mph 1016mb 59f 61f
12:50am 3.5ft 11s 5s 11 13 mph 1016mb 59f 61f
12:40am 3.5ft  -  5s 13 16 mph 1015.8mb 59f 61f
12:30am  -   -   -  13 16 mph 1015.8mb 59f 61f
12:20am  -   -   -  13 16 mph 1015.7mb 59f 61f
12:10am  -   -   -  13 18 mph 1015.7mb 59f 61f
12:00am  -   -   -  16 18 mph 1015.7mb 59f 61f
Mon 11/20 11:50pm 3.5ft 11s 5s 16 18 mph 1015.8mb 59f 61f
11:40pm  -   -   -  16 18 mph 1015.9mb 59f 61f
11:30pm  -   -   -  16 18 mph 1015.9mb 59f 61f
11:20pm  -   -   -  16 20 mph 1015.9mb 59f 60f
11:10pm  -   -   -  16 20 mph 1015.9mb 59f 60f
11:00pm  -   -   -  18 20 mph 1016mb - 60f
10:50pm 3.5ft 12s 5s 16 20 mph 1015.8mb 59f 60f
10:40pm  -   -   -  18 20 mph 1015.8mb 59f 60f
10:30pm  -   -   -  16 20 mph 1015.8mb 59f 60f
10:20pm  -   -   -  20 22 mph 1015.8mb 58f 60f
10:10pm  -   -   -  20 25 mph 1015.9mb 58f 60f
10:00pm  -   -   -  20 25 mph 1016mb - 60f
9:50pm 3.5ft 11s 5s 22 27 mph 1016mb 58f 60f
9:40pm 3.5ft  -  5s 22 25 mph 1016.2mb 58f 60f
9:30pm  -   -   -  22 27 mph 1016.3mb 58f 60f
9:20pm  -   -   -  22 27 mph 1016.5mb 58f 60f
9:10pm  -   -   -  20 25 mph 1016.6mb 58f 60f
9:00pm  -   -   -  20 25 mph 1016.4mb - 60f
8:50pm 3ft 13s 4s 20 25 mph 1016.4mb 59f 60f
8:40pm  -   -   -  20 25 mph 1016.3mb 59f 60f
8:30pm  -   -   -  20 25 mph 1016.3mb 59f -
8:20pm  -   -   -  20 25 mph 1016.3mb 59f 60f
8:10pm  -   -   -  22 25 mph 1016.4mb 59f 60f
8:00pm  -   -   -  22 27 mph 1016.5mb 59f 60f
7:50pm 3.5ft 13s 5s 20 27 mph 1016.5mb 59f 60f
7:40pm  -   -   -  20 25 mph 1016.6mb 59f 60f
7:30pm  -   -   -  20 25 mph 1016.7mb 59f 60f
7:20pm  -   -   -  20 22 mph 1016.9mb 59f 60f
7:10pm  -   -   -  20 25 mph 1016.8mb 59f 60f
7:00pm  -   -   -  20 25 mph 1016.9mb 59f 60f
6:50pm 3ft 12s 4s 20 25 mph 1016.7mb 59f 60f
6:40pm  -   -   -  20 25 mph 1016.8mb 59f 60f
6:30pm  -   -   -  20 22 mph 1016.8mb 59f 60f
6:20pm  -   -   -  18 22 mph 1016.7mb 59f 60f
6:10pm  -   -   -  18 20 mph 1016.7mb 59f 60f
6:00pm  -   -   -  18 22 mph 1016.7mb 59f 60f
5:50pm 3.5ft 13s 5s 18 22 mph 1016.6mb 59f 60f
5:40pm 3.5ft  -  5s 18 22 mph 1016.5mb 59f 60f
5:30pm  -   -   -  18 22 mph 1016.6mb 59f 60f
5:20pm  -   -   -  18 22 mph 1016.5mb 59f 61f
5:10pm  -   -   -  18 22 mph 1016.5mb 59f 61f
5:00pm  -   -   -  20 25 mph 1016.4mb 59f 61f
4:50pm 3.5ft 14s 5s 20 22 mph 1016.3mb 59f 61f
4:40pm  -   -   -  20 25 mph 1016.3mb 59f 61f
4:30pm  -   -   -  22 25 mph 1016.3mb 59f 61f
4:20pm  -   -   -  22 27 mph 1016.3mb 59f 61f
4:10pm  -   -   -  20 25 mph 1016.3mb 59f 61f
4:00pm  -   -   -  20 25 mph 1016.2mb 59f 61f
3:50pm 3.5ft 14s 5s 20 25 mph 1016.2mb 59f 61f
3:40pm 3.5ft  -  5s 20 22 mph 1016.2mb 59f 62f
3:30pm  -   -   -  18 22 mph 1016.2mb 59f 62f
3:20pm  -   -   -  18 20 mph 1016mb 59f 62f
3:10pm  -   -   -  16 20 mph 1016mb 59f 62f
3:00pm  -   -   -  16 18 mph 1016mb 59f 62f
2:50pm 3.5ft 13s 5s 16 18 mph 1016.1mb 59f 62f
2:40pm 3.5ft  -  5s 16 18 mph 1016.1mb 59f 62f
2:30pm  -   -   -  13 16 mph 1016.2mb 59f 62f
2:20pm  -   -   -  13 16 mph 1016.4mb 59f 61f
2:10pm  -   -   -  13 16 mph 1016.5mb 59f 61f
2:00pm  -   -   -  16 18 mph 1016.6mb 59f 61f
1:50pm 3.5ft 13s 5s 16 20 mph 1016.6mb 59f 61f
1:40pm 3.5ft  -  5s 18 20 mph 1016.6mb 59f 61f
1:30pm  -   -   -  18 20 mph 1016.8mb 59f 61f
1:20pm  -   -   -  18 22 mph 1016.9mb 59f 61f
1:10pm  -   -   -  18 22 mph 1016.9mb 59f 61f
1:00pm  -   -   -  18 20 mph 1016.9mb 59f 61f
12:50pm 4ft 13s 5s 16 18 mph 1017mb 59f 61f
12:40pm 4ft  -  5s 18 22 mph 1017mb 59f 61f
12:30pm  -   -   -  20 27 mph 1017mb 59f 60f
12:20pm  -   -   -  18 22 mph 1017mb 59f 60f
12:10pm  -   -   -  18 22 mph 1017.1mb 59f 59f
12:00pm  -   -   -  18 22 mph 1017.2mb 59f 59f
11:50am 4.5ft 14s 5s 20 22 mph 1017.4mb 59f 59f
11:40am  -   -   -  20 25 mph 1017.6mb 58f 59f
11:30am  -   -   -  20 25 mph 1017.7mb 58f 59f
11:20am  -   -   -  20 22 mph 1017.8mb 58f 59f
11:10am  -   -   -  20 22 mph 1018mb 58f 59f
11:00am  -   -   -  20 22 mph 1018.2mb 58f 59f
10:50am 4ft 13s 5s 20 25 mph 1018.4mb 58f 59f
10:40am 4ft  -  5s 20 25 mph 1018.5mb 58f 59f
10:30am  -   -   -  18 22 mph 1018.5mb 58f 59f
10:20am  -   -   -  18 25 mph 1018.5mb 58f 59f
10:10am  -   -   -  18 22 mph 1018.5mb 58f 59f
10:00am  -   -   -  18 22 mph 1018.6mb 58f 59f
9:50am 4ft 14s 5s 20 25 mph 1018.3mb 58f 58f
9:40am  -   -   -  18 22 mph 1018.1mb 58f 58f
9:30am  -   -   -  16 20 mph 1018.1mb 58f 59f
9:20am  -   -   -  16 20 mph 1018.1mb 58f 59f
9:10am  -   -   -  18 22 mph 1017.8mb 58f 59f
9:00am  -   -   -  18 22 mph 1017.6mb 58f 59f
8:50am 3.5ft 14s 6s 20 22 mph 1017.5mb 58f 59f
8:40am 3.5ft  -  6s 18 25 mph 1017.4mb 58f 59f
8:30am  -   -   -  16 20 mph 1017.3mb - 59f
8:20am  -   -   -  16 20 mph 1017.3mb 58f 59f
8:10am  -   -   -  16 20 mph 1016.9mb - 59f
8:00am  -   -   -  13 18 mph 1016.7mb 58f 59f
7:50am 3.5ft 14s 5s 13 16 mph 1016.7mb 58f 59f
7:40am 3.5ft  -  5s 13 18 mph 1016.8mb 58f 59f
7:30am  -   -   -  13 18 mph 1016.8mb 58f 59f
7:20am  -   -   -  13 18 mph 1016.7mb 58f 59f
7:10am  -   -   -  18 25 mph 1016.8mb 58f 59f
7:00am  -   -   -  20 27 mph 1016.8mb 58f 59f
6:50am 4ft 14s 5s 16 20 mph 1016.9mb 58f 59f
6:40am 4ft  -  5s 18 25 mph 1016.8mb 58f 59f
6:30am  -   -   -  22 27 mph 1016.8mb 58f 59f
6:20am  -   -   -  25 29 mph 1016.5mb 58f 59f
6:10am  -   -   -  20 27 mph 1016.3mb 58f 59f
6:00am  -   -   -  18 22 mph 1016.4mb 58f 58f
5:50am 4ft 13s 5s 20 25 mph 1016.5mb 58f 58f
5:40am 4ft  -  5s 20 27 mph 1016.2mb 58f 58f
5:30am  -   -   -  20 25 mph 1016.2mb 58f 58f
5:20am  -   -   -  18 22 mph 1016.2mb 58f 58f
5:10am  -   -   -  18 22 mph 1016mb 59f 58f
5:00am  -   -   -  20 25 mph 1015.8mb 59f 58f
4:50am 4.5ft 14s 5s 22 27 mph 1015.8mb 59f 58f
4:40am  -   -   -  22 27 mph 1016mb 59f 58f
4:30am  -   -   -  25 29 mph 1015.7mb 59f 58f
4:20am  -   -   -  22 27 mph 1015.4mb 59f 59f
4:10am  -   -   -  22 29 mph 1015.4mb 59f 59f
4:00am  -   -   -  20 27 mph 1015.4mb 59f 59f
3:50am 3.5ft 16s 5s 18 22 mph 1015.5mb 59f 59f
3:40am  -   -   -  16 20 mph 1015.6mb 59f 60f
3:30am  -   -   -  13 18 mph 1015.4mb 59f 60f
3:20am  -   -   -  16 18 mph 1015.4mb 59f 60f
3:10am  -   -   -  13 16 mph 1015.4mb 59f 59f
3:00am  -   -   -  11 16 mph 1015.4mb 59f 59f
2:50am 3.5ft 5s 5s 11 13 mph 1015.3mb - 59f
2:40am  -   -   -  9 11 mph 1015.2mb 59f 59f
2:30am  -   -   -  7 11 mph 1015.1mb 59f 58f
2:20am  -   -   -  7 7 mph 1014.7mb 59f 58f
2:10am  -   -   -  7 11 mph 1014.7mb 59f 58f
2:00am  -   -   -  9 11 mph 1015.1mb 59f 58f
1:50am 4.5ft 14s 5s 9 11 mph 1014.9mb - 58f
1:40am 4.5ft  -  5s 9 11 mph 1014.7mb 59f 58f
1:30am  -   -   -  11 16 mph 1014.5mb 59f 58f
1:20am  -   -   -  13 16 mph 1014.9mb 59f 58f
1:10am  -   -   -  13 20 mph 1015.2mb 59f 58f
1:00am  -   -   -  18 22 mph 1015.4mb 59f 58f
12:50am 4.5ft 6s 5s 20 25 mph 1015.7mb 59f 58f
12:40am  -   -   -  20 25 mph 1016mb 59f 58f
12:30am  -   -   -  20 25 mph 1016.1mb 59f 58f
12:20am  -   -   -  20 22 mph 1016.1mb 59f 58f
12:10am  -   -   -  22 27 mph 1016.2mb 59f 58f
12:00am  -   -   -  22 25 mph 1016.4mb 59f 58f
Sun 11/19 11:50pm 5ft 6s 5s 22 27 mph 1016.4mb 59f 58f
11:40pm 5ft  -  5s 22 29 mph 1016.3mb 59f 58f
11:30pm  -   -   -  22 27 mph 1016.5mb 59f 58f
11:20pm  -   -   -  25 29 mph 1016.7mb - 58f
11:10pm  -   -   -  22 29 mph 1016.8mb 59f 58f
11:00pm  -   -   -  22 27 mph 1016.7mb 59f 58f
10:50pm 5ft 6s 5s 20 25 mph 1016.6mb 59f 58f
10:40pm 5ft  -  5s 20 25 mph 1016.6mb 59f 58f
10:30pm  -   -   -  22 27 mph 1016.6mb 59f 58f
10:20pm  -   -   -  22 27 mph 1016.8mb 59f 58f
10:10pm  -   -   -  20 27 mph 1016.7mb 59f 58f
10:00pm  -   -   -  22 27 mph 1016.8mb 59f 58f
9:50pm 4.5ft 6s 5s 22 27 mph 1017mb 59f 58f
9:40pm 4.5ft  -  5s 22 27 mph 1017.1mb 59f 58f
9:30pm  -   -   -  22 27 mph 1017mb 60f 58f
9:20pm  -   -   -  22 29 mph 1016.9mb 59f 58f
9:10pm  -   -   -  22 29 mph 1016.9mb 59f 58f
9:00pm  -   -   -  22 27 mph 1017mb 59f 58f
8:50pm 4.5ft 5s 5s 22 27 mph 1016.9mb 60f 58f
8:40pm  -   -   -  22 27 mph 1016.9mb 60f 58f
8:30pm  -   -   -  22 29 mph 1016.8mb 60f 59f
8:20pm  -   -   -  22 27 mph 1016.7mb 60f 59f
8:10pm  -   -   -  22 27 mph 1016.8mb 60f 59f
8:00pm  -   -   -  22 27 mph 1016.8mb 60f 59f
7:50pm 4.5ft 5s 5s 22 29 mph 1016.9mb 60f 59f
7:40pm  -   -   -  22 29 mph 1017mb 60f 59f
7:30pm  -   -   -  25 29 mph 1017mb 60f 59f
7:20pm  -   -   -  22 29 mph 1016.9mb 60f 59f
7:10pm  -   -   -  25 29 mph 1016.9mb 60f 59f
7:00pm  -   -   -  25 29 mph 1016.7mb 60f 59f
6:50pm 4.5ft 4s 5s 25 29 mph 1016.7mb 60f 59f
6:40pm 4.5ft  -  5s 25 29 mph 1016.6mb 60f 59f
6:30pm  -   -   -  25 29 mph 1016.5mb 60f 59f
6:20pm  -   -   -  22 29 mph 1016.4mb 60f 59f
6:10pm  -   -   -  20 25 mph 1016.5mb 60f 59f
6:00pm  -   -   -  20 25 mph 1016.5mb 60f 59f
5:50pm 4ft 9s 5s 20 25 mph 1016.5mb 60f 59f
5:40pm  -   -   -  22 27 mph 1016.6mb - 59f
5:30pm  -   -   -  20 25 mph 1016.5mb 60f 59f
5:20pm  -   -   -  22 27 mph 1016.3mb 60f 59f
5:10pm  -   -   -  22 29 mph 1016.3mb 60f 59f
5:00pm  -   -   -  22 29 mph 1016.4mb 60f 59f